Orbital Elements at Epoch 2459000.5 (2020-May-31.0) TDB
Reference: JPL 23 (heliocentric ecliptic J2000)
Element | Value | Uncertainty (1-sigma) | Units |
e | .1398134237239475 | 3.8169e-08 | |
a | 2.452070731731488 | 1.2075e-08 | au |
q | 2.109238327514824 | 9.0315e-08 | au |
i | 1.187309900691184 | 4.0214e-06 | deg |
node | 268.1869267678445 | 0.00029999 | deg |
peri | 182.0547597799051 | 0.00030101 | deg |
M | 87.08036526335665 | 2.6162e-05 | deg |
tp | 2458661.253279136777 (2019-Jun-26.75327914) | 0.00010077 | TDB |
period | 1402.48400591117 3.84 | 1.036e-05 2.836e-08 | d yr |
n | .256687419238064 | 1.8961e-09 | deg/d |
Q | 2.794903135948153 | 1.3764e-08 | au |
|
| | Orbit Determination Parameters
Additional Information
|